Home > Weather > Gary > Past weeks

Flag for U.S.A. Weather for the Past 2 Weeks in Gary, Indiana, U.S.A.

Now
23 °F

Scattered clouds.


Feels Like: 9 °F
Forecast: 12 / 24 °F
Wind: 17 mph from Northwest

Location: Lansing Municipal Airport

Current Time: Feb 12, 2016 at 5:12:10 PM

Latest Report: Feb 12, 2016 at 3:55 PM


Visibility: 10 mi

Pressure: 30.19 "Hg

Humidity: 38%

Dew point: 1 °F

Location of GaryLocation

Historic Weather in Gary — Graph

°F

Gary Temperature Yesterday

Maximum temperature yesterday: 23 °F (at 2:35 PM)
Minimum temperature yesterday: 10 °F (at 6:35 AM)
Average temperature yesterday: 15 °F

High & Low Weather Summary for the Past Weeks

 TemperatureHumidityPressure
High52 °F (Jan 31, 1:35 PM)100% (Feb 2, 11:15 PM)30.37 "Hg (Feb 2, 11:15 PM)
Low10 °F (Feb 11, 6:35 AM)37% (Feb 11, 2:55 PM)29.46 "Hg (Feb 2, 10:35 PM)
Average30 °F76%29.95 "Hg
* Reported Jan 28 3:15 PM — Feb 12 3:15 PM, Gary, Weather by CustomWeather, © 2016

Note: Actual official high and low records may vary slightly from our data, if they occured in-between our weather recording intervals... More about our weather records

Advertising

Gary Weather History for the Previous 24 Hours

 ConditionsComfort  
Time TempWeatherWind HumidityBarometerVisibility
3:15 PM
Fri, Feb 12
24 °FPartly sunny.18 mph43%30.17 "Hg10 mi
2:55 PM24 °FScattered clouds.21 mph42%30.16 "Hg10 mi
2:35 PM25 °FPartly sunny.20 mph41%30.16 "Hg10 mi
2:15 PM26 °FPartly sunny.15 mph43%30.15 "Hg10 mi
1:55 PM25 °FScattered clouds.15 mph45%30.15 "Hg10 mi
1:15 PM24 °FSunny.17 mph48%30.14 "Hg10 mi
12:55 PM24 °FScattered clouds.13 mph51%30.14 "Hg10 mi
12:15 PM23 °FOvercast.14 mph59%30.15 "Hg10 mi
11:55 AM23 °FOvercast.15 mph62%30.15 "Hg10 mi
11:35 AM23 °FOvercast.14 mph64%30.15 "Hg10 mi
11:15 AM23 °FOvercast.13 mph66%30.16 "Hg10 mi
10:55 AM22 °FLight snow. Overcast.13 mph71%30.16 "Hg5 mi
10:35 AM22 °FLight snow. Cloudy.12 mph71%30.16 "Hg10 mi
10:15 AM22 °FLight snow. Mostly cloudy.15 mph77%30.15 "Hg5 mi
9:55 AM22 °FLight snow. Cloudy.12 mph75%30.15 "Hg5 mi
9:35 AM22 °FLight snow. Mostly cloudy.12 mph72%30.15 "Hg1 mi
9:15 AM22 °FMostly cloudy.12 mph64%30.15 "Hg10 mi
8:55 AM21 °FOvercast.9 mph62%30.15 "Hg10 mi
8:35 AM21 °FOvercast.14 mph62%30.15 "Hg10 mi
8:15 AM21 °FOvercast.14 mph62%30.15 "Hg10 mi
7:55 AM21 °FOvercast.9 mph62%30.16 "Hg10 mi
7:35 AM21 °FOvercast.9 mph67%30.16 "Hg10 mi
7:15 AM20 °FMostly cloudy.8 mph72%30.15 "Hg10 mi
6:55 AM20 °FOvercast.7 mph73%30.15 "Hg10 mi
6:35 AM19 °FMostly cloudy.7 mph75%30.16 "Hg10 mi
6:15 AM20 °FCloudy.6 mph74%30.16 "Hg10 mi
5:55 AM20 °FOvercast.6 mph74%30.17 "Hg10 mi
5:35 AM20 °FMostly cloudy.6 mph72%30.16 "Hg10 mi
5:15 AM19 °FMostly cloudy.6 mph72%30.16 "Hg10 mi
4:55 AM19 °FOvercast.5 mph71%30.16 "Hg10 mi
4:35 AM19 °FOvercast.5 mph71%30.17 "Hg10 mi
4:15 AM19 °FOvercast.5 mph72%30.17 "Hg10 mi
3:55 AM18 °FOvercast.5 mph74%30.18 "Hg10 mi
3:35 AM18 °FOvercast.5 mph74%30.18 "Hg10 mi
3:15 AM18 °FOvercast.6 mph75%30.18 "Hg10 mi
2:55 AM18 °FOvercast.5 mph73%30.19 "Hg10 mi
2:35 AM18 °FOvercast.6 mph72%30.19 "Hg10 mi
2:15 AM17 °FOvercast.No wind77%30.21 "Hg10 mi
1:55 AM17 °FOvercast.No wind73%30.21 "Hg10 mi
1:35 AM17 °FOvercast.5 mph72%30.21 "Hg10 mi
1:15 AM16 °FOvercast.No wind77%30.22 "Hg10 mi
12:55 AM14 °FOvercast.3 mph80%30.23 "Hg10 mi
12:35 AM15 °FOvercast.No wind78%30.24 "Hg10 mi
12:15 AM16 °FPassing clouds.3 mph76%30.24 "Hg10 mi
11:35 PM
Thu, Feb 11
16 °FPassing clouds.3 mph77%30.26 "Hg10 mi
11:15 PM14 °FPassing clouds.No wind79%30.27 "Hg10 mi
10:55 PM13 °FPassing clouds.5 mph76%30.27 "Hg10 mi
10:15 PM15 °FPassing clouds.No wind71%30.27 "Hg10 mi
9:55 PM15 °FClear.No wind70%30.28 "Hg10 mi
9:15 PM17 °FClear.No wind61%30.28 "Hg10 mi
8:55 PM18 °FClear.5 mph58%30.29 "Hg10 mi
8:15 PM17 °FClear.3 mph57%30.29 "Hg10 mi
7:55 PM17 °FClear.5 mph58%30.29 "Hg10 mi
7:35 PM18 °FClear.6 mph57%30.29 "Hg10 mi
7:15 PM19 °FClear.6 mph52%30.29 "Hg10 mi
6:55 PM21 °FClear.7 mph45%30.29 "Hg10 mi
6:35 PM19 °FClear.5 mph46%30.29 "Hg10 mi
6:15 PM19 °FClear.5 mph48%30.29 "Hg10 mi
5:55 PM19 °FClear.5 mph46%30.29 "Hg10 mi
5:15 PM21 °FClear.5 mph42%30.29 "Hg10 mi
Weather by CustomWeather, © 2016

See weather overviewHow to use our weather pages